IRIDIUM 11

Last updated on Wed Nov 29 2017 00:19:03 GMT+0000 (Coordinated Universal Time)

1 25578U 98074B 17332.56447389 .00000104 00000-0 30203-4 0 9994 2 25578 86.3976 186.8926 0002072 87.8934 328.5921 14.34219737 964
UTC large
Height (km)
Speed (km/s)
/
Latitude / Longitude
Inclination (degrees)
Orbital Period (minutes)
Azimuth
Elevation
Range (km)
Doppler Factor

Next 0 passes for location: London (51.5072 / 0.1276)

Sorry there are no passes over London.